Location: Thompson
(55.7500°N, 97.8670°W)
Time: 13:56:41
(UTC-06:00)

Amateur Radio Satellites - All Passes

Search period start: 15 December 2017 13:26
Search period end: 16 December 2017 13:26
Location: Thompson, 55.7500°N, 97.8670°W

Satellite Date Start Highest point End Downlink Frequencies (MHz)
Time Altitude Azimuth
Gurwin Techsat 1B 15 Dec 13:30:43 13:36:01 67° 257° (WSW) 13:41:21 435.225
AO-91 15 Dec 13:31:03 13:35:35 48° 260° (W) 13:39:42 145.960
RS-15 15 Dec 13:39:34 13:48:57 27° 101° (E) 13:58:12 29.354- 29.394
DX 1 15 Dec 13:42:55 13:46:31 24° 93° (E) 13:50:04 434.975-435.025
M-CUBED/EXP-1 PRIME 15 Dec 13:46:57 13:51:12 42° 57° (ENE) 13:55:36 437.505
ISS 15 Dec 13:51:14 13:54:14 32° 166° (SSE) 13:57:15 437.550
ITAMSAT 1 15 Dec 13:56:51 14:01:25 32° 57° (ENE) 14:06:00 435.822/435.867
LO-87 15 Dec 14:00:05 14:00:38 10° 308° (NW) 14:01:11 145.935 - 145.965
O/OREOS (USA 219) 15 Dec 14:01:44 14:02:41 11° 5° (N) 14:03:38 437.305
NO-84 15 Dec 14:22:07 14:22:44 10° 227° (SW) 14:23:21 435.350 FM
Oscar 19 15 Dec 14:23:07 14:27:08 23° 270° (W) 14:31:12 437.125/150
VELOX 1 15 Dec 14:26:03 14:30:17 45° 295° (WNW) 14:34:29 145.980
HO-68 15 Dec 14:31:53 14:34:24 12° 18° (NNE) 14:36:54 435.675
ESTCUBE 1 15 Dec 14:34:39 14:36:41 13° 313° (NW) 14:38:42 437.505/2401.250
AO-7 15 Dec 14:40:11 14:48:32 86° 249° (WSW) 14:56:57 .
nSIGHT-1 15 Dec 14:41:59 14:45:02 39° 179° (S) 14:48:05 .
DOVE 4 15 Dec 14:42:48 14:46:28 20° 54° (NE) 14:50:04 437.250
50 SAT 15 Dec 14:50:30 14:53:40 69° 288° (WNW) 14:56:47 437.505
MOZHAYETS 4 15 Dec 14:53:56 14:57:34 22° 90° (E) 15:01:12
SO-50 15 Dec 15:00:06 15:02:15 13° 112° (ESE) 15:04:24 436.795
SPROUT 15 Dec 15:00:36 15:03:25 17° 306° (NW) 15:06:13 437.525
UKube-1 15 Dec 15:00:52 15:05:13 75° 105° (ESE) 15:09:30 .
YUBILEINY 15 Dec 15:04:57 15:13:39 63° 267° (W) 15:22:15 435.215
Gurwin Techsat 1B 15 Dec 15:14:25 15:17:01 14° 277° (W) 15:19:39 435.225
DX 1 15 Dec 15:18:43 15:22:59 54° 293° (WNW) 15:27:14 434.975-435.025
M-CUBED/EXP-1 PRIME 15 Dec 15:21:26 15:25:36 38° 257° (WSW) 15:29:56 437.505
BEESAT 15 Dec 15:22:53 15:26:57 27° 93° (E) 15:31:00 436.000
ISS 15 Dec 15:27:15 15:30:21 39° 185° (S) 15:33:27 437.550
CUTE-I 15 Dec 15:31:31 15:34:35 16° 44° (NE) 15:37:39 437.470
ITAMSAT 1 15 Dec 15:35:32 15:40:40 58° 258° (WSW) 15:45:50 435.822/435.867
O/OREOS (USA 219) 15 Dec 15:40:47 15:43:59 18° 30° (NNE) 15:47:10 437.305
RS-15 15 Dec 15:47:12 15:59:25 71° 127° (SE) 16:11:23 29.354- 29.394
XW-2F 15 Dec 15:48:01 15:49:14 11° 51° (NE) 15:50:27 145.980 - 146.000
ITUPSAT 1 15 Dec 15:51:38 15:56:13 44° 99° (E) 16:00:47 437.325
XW-2C 15 Dec 16:03:00 16:05:18 16° 55° (NE) 16:07:37 145.795 - 145.815
VELOX 1 15 Dec 16:04:48 16:05:43 11° 316° (NW) 16:06:39 145.980
HO-68 15 Dec 16:14:10 16:19:51 26° 43° (NE) 16:25:31 435.675
nSIGHT-1 15 Dec 16:18:02 16:20:50 27° 199° (SSW) 16:23:37 .
DOVE 4 15 Dec 16:18:20 16:23:34 85° 73° (ENE) 16:28:36 437.250
CUBESAT XI-V 15 Dec 16:19:25 16:23:48 36° 96° (E) 16:28:08 437.345
MOZHAYETS 4 15 Dec 16:30:33 16:35:08 65° 291° (WNW) 16:39:44
AO-7 15 Dec 16:35:44 16:42:30 27° 271° (W) 16:49:20 .
KKS-1 15 Dec 16:37:23 16:39:28 13° 85° (E) 16:41:33 437.445
SO-50 15 Dec 16:37:26 16:41:52 63° 132° (SE) 16:46:23 436.795
UKube-1 15 Dec 16:37:36 16:40:48 20° 305° (NW) 16:43:58 .
LilacSat-2 15 Dec 16:39:19 16:42:44 31° 64° (ENE) 16:46:12 437.200
XW-2D 15 Dec 16:52:03 16:55:36 39° 66° (ENE) 16:59:12 145.860 - 145.880
NUDT-PHONESAT 15 Dec 16:52:17 16:55:29 28° 63° (ENE) 16:58:43 437.300
DX 1 15 Dec 16:56:37 16:58:18 12° 313° (NW) 16:59:59 434.975-435.025
CUTE 1.7 + AOD 2 15 Dec 16:57:06 17:00:03 18° 55° (NE) 17:03:00 437.475
KAITUO 1B 15 Dec 16:57:42 17:01:05 33° 65° (ENE) 17:04:31 145.475/437.950
BEESAT 15 Dec 17:00:22 17:05:02 56° 293° (WNW) 17:09:42 436.000
YUBILEINY 15 Dec 17:03:11 17:08:40 19° 292° (WNW) 17:14:07 435.215
ISS 15 Dec 17:03:45 17:06:20 21° 205° (SSW) 17:08:54 437.550
XW-2B 15 Dec 17:07:47 17:11:29 52° 70° (ENE) 17:15:14 145.730 - 145.750
CUTE-I 15 Dec 17:08:24 17:13:38 56° 66° (ENE) 17:18:54 437.470
STARS 15 Dec 17:17:18 17:19:27 13° 86° (E) 17:21:36 437.465
XW-2F 15 Dec 17:18:50 17:22:35 63° 72° (ENE) 17:26:24 145.980 - 146.000
ITAMSAT 1 15 Dec 17:19:38 17:21:18 11° 279° (W) 17:22:57 435.822/435.867
O/OREOS (USA 219) 15 Dec 17:19:48 17:24:19 62° 54° (NE) 17:28:47 437.305
ITUPSAT 1 15 Dec 17:29:38 17:34:00 36° 299° (WNW) 17:38:20 437.325
XW-2C 15 Dec 17:35:09 17:38:57 84° 253° (WSW) 17:42:50 145.795 - 145.815
UWE-3 15 Dec 17:53:09 17:56:19 22° 58° (ENE) 17:59:30 435.000/436.395/437.385
CUBEBUG 2 15 Dec 17:55:06 17:58:50 33° 63° (ENE) 18:02:35 437.445
CUBESAT XI-V 15 Dec 17:56:48 18:01:15 41° 296° (WNW) 18:05:40 437.345
DOVE 4 15 Dec 17:58:03 18:01:49 20° 272° (W) 18:05:30 437.250
HO-68 15 Dec 17:59:29 18:06:39 75° 66° (ENE) 18:13:51 435.675
RS-15 15 Dec 18:00:10 18:12:28 65° 336° (NNW) 18:24:22 29.354- 29.394
SEEDS 15 Dec 18:06:12 18:10:12 41° 66° (ENE) 18:14:14 437.485
MOZHAYETS 4 15 Dec 18:09:00 18:11:31 15° 311° (NW) 18:14:01
KKS-1 15 Dec 18:12:20 18:16:48 78° 105° (ESE) 18:21:14 437.445
LilacSat-2 15 Dec 18:13:27 18:16:59 34° 264° (W) 18:20:33 437.200
ZACube-1 15 Dec 18:15:45 18:18:50 21° 57° (ENE) 18:21:58 437.345
SO-50 15 Dec 18:18:17 18:22:34 41° 335° (NNW) 18:26:57 436.795
AAUSAT CUBESAT 2 15 Dec 18:22:03 18:25:43 30° 63° (ENE) 18:29:25 437.432
NUDT-PHONESAT 15 Dec 18:25:47 18:29:14 36° 263° (W) 18:32:44 437.300
XW-2D 15 Dec 18:26:36 18:29:53 27° 266° (W) 18:33:11 145.860 - 145.880
CUTE 1.7 + AOD 2 15 Dec 18:31:05 18:35:21 83° 253° (WSW) 18:39:42 437.475
KAITUO 1B 15 Dec 18:31:41 18:35:04 31° 265° (W) 18:38:30 145.475/437.950
Oscar 11 15 Dec 18:33:22 18:36:34 20° 56° (NE) 18:39:46 .
BEESAT 15 Dec 18:39:33 18:41:55 14° 314° (NW) 18:44:15 436.000
XW-2A 15 Dec 18:42:47 18:45:57 38° 67° (ENE) 18:49:08 145.665 - 145.685
XW-2B 15 Dec 18:43:03 18:45:57 20° 269° (W) 18:48:52 145.730 - 145.750
STRAND 1 15 Dec 18:46:21 18:49:27 16° 85° (E) 18:52:33 437.568
AO-73 15 Dec 18:48:12 18:51:54 32° 63° (ENE) 18:55:39 145.935
CUTE-I 15 Dec 18:49:13 18:53:59 32° 266° (W) 18:58:47 437.470
STARS 15 Dec 18:52:08 18:56:32 81° 105° (ESE) 19:00:54 437.465
XW-2F 15 Dec 18:54:33 18:57:06 17° 271° (W) 18:59:40 145.980 - 146.000
PCSat 15 Dec 18:59:41 19:04:39 38° 118° (ESE) 19:09:37 145.827
O/OREOS (USA 219) 15 Dec 18:59:44 19:03:24 25° 254° (WSW) 19:07:01 437.305
XW-2C 15 Dec 19:12:25 19:13:48 12° 275° (W) 19:15:10 145.795 - 145.815
DELFI C3 15 Dec 19:15:15 19:17:01 13° 52° (NE) 19:18:47 145.870
UWE-3 15 Dec 19:28:20 19:32:27 62° 258° (WSW) 19:36:35 435.000/436.395/437.385
CUBEBUG 2 15 Dec 19:31:35 19:35:27 37° 263° (W) 19:39:20 437.445
CUBESAT XI-V 15 Dec 19:36:41 19:37:30 10° 317° (NW) 19:38:18 437.345
SEEDS 15 Dec 19:42:14 19:46:00 30° 266° (W) 19:49:48 437.485
HO-68 15 Dec 19:48:46 19:55:03 32° 268° (W) 20:01:23 435.675
KKS-1 15 Dec 19:49:38 19:52:55 21° 306° (NW) 19:56:11 437.445
ZACube-1 15 Dec 19:50:38 19:54:45 67° 257° (WSW) 19:58:56 437.345
AAUSAT CUBESAT 2 15 Dec 19:57:05 20:01:04 42° 262° (W) 20:05:05 437.432
SO-50 15 Dec 20:00:06 20:04:01 27° 359° (N) 20:08:00 436.795
Oscar 11 15 Dec 20:07:56 20:12:16 74° 257° (WSW) 20:16:38 .
CUTE 1.7 + AOD 2 15 Dec 20:09:48 20:11:55 13° 276° (W) 20:14:02 437.475
FO-29 15 Dec 20:10:21 20:16:43 33° 89° (E) 20:22:26 435.910
RS-15 15 Dec 20:15:03 20:27:05 57° 8° (N) 20:38:35 29.354- 29.394
XW-2A 15 Dec 20:16:08 20:18:47 21° 267° (W) 20:21:30 145.665 - 145.685
AO-73 15 Dec 20:24:15 20:28:06 38° 263° (W) 20:32:02 145.935
STRAND 1 15 Dec 20:24:21 20:29:29 80° 106° (ESE) 20:34:36 437.568
BEESAT 3 15 Dec 20:28:53 20:32:21 29° 123° (ESE) 20:35:52 437.485
STARS 15 Dec 20:29:16 20:32:23 19° 306° (NW) 20:35:30 437.465
Max Valier Satellite 15 Dec 20:42:11 20:45:40 43° 68° (ENE) 20:49:12 145.860
PCSat 15 Dec 20:42:30 20:47:53 61° 320° (NW) 20:53:18 145.827
DELFI C3 15 Dec 20:47:05 20:51:03 68° 72° (ENE) 20:55:03 145.870
ESTCUBE 1 15 Dec 20:52:42 20:54:38 13° 47° (NE) 20:56:33 437.505/2401.250
TIGRISAT 15 Dec 20:58:59 21:00:07 11° 83° (E) 21:01:16 435.000
UNISAT 6 15 Dec 21:01:57 21:03:53 13° 85° (E) 21:05:49 437.425
EO-88 15 Dec 21:07:09 21:10:43 55° 70° (ENE) 21:14:20 145.990 - 145.960
BEESAT 2 15 Dec 21:12:00 21:15:22 25° 121° (ESE) 21:18:44 435.950
ZACube-1 15 Dec 21:31:26 21:31:55 10° 278° (W) 21:32:23 437.345
LO-87 15 Dec 21:34:41 21:37:20 20° 60° (ENE) 21:40:00 145.935 - 145.965
SO-50 15 Dec 21:41:12 21:45:31 38° 23° (NNE) 21:49:54 436.795
Oscar 11 15 Dec 21:47:29 21:49:12 12° 277° (W) 21:50:56 .
AO-85 15 Dec 21:51:32 21:54:21 19° 116° (ESE) 21:57:18 145.980
FO-29 15 Dec 21:55:12 22:02:25 69° 293° (WNW) 22:08:45 435.910
STRAND 1 15 Dec 22:04:12 22:08:12 24° 307° (NW) 22:12:11 437.568
BEESAT 3 15 Dec 22:05:45 22:09:42 59° 324° (NW) 22:13:41 437.485
Max Valier Satellite 15 Dec 22:16:42 22:19:41 23° 268° (W) 22:22:40 145.860
VELOX 1 15 Dec 22:20:02 22:22:23 14° 49° (NE) 22:24:45 145.980
DELFI C3 15 Dec 22:23:32 22:26:14 17° 271° (W) 22:28:56 145.870
ESTCUBE 1 15 Dec 22:26:07 22:30:31 54° 68° (ENE) 22:34:58 437.505/2401.250
PCSat 15 Dec 22:27:34 22:32:16 29° 344° (NNW) 22:36:58 145.827
RS-15 15 Dec 22:28:53 22:41:03 84° 39° (NE) 22:52:33 29.354- 29.394
TIGRISAT 15 Dec 22:33:20 22:37:39 67° 103° (ESE) 22:42:02 435.000
UNISAT 6 15 Dec 22:37:00 22:41:21 78° 105° (ESE) 22:45:45 437.425
EO-88 15 Dec 22:42:06 22:44:41 18° 270° (W) 22:47:17 145.990 - 145.960
BEESAT 2 15 Dec 22:48:45 22:52:47 68° 322° (NW) 22:56:52 435.950
SPROUT 15 Dec 22:48:54 22:52:30 28° 61° (ENE) 22:56:08 437.525
PRISM 15 Dec 22:51:54 22:55:45 36° 97° (E) 22:59:32 437.425
LO-87 15 Dec 23:07:03 23:10:30 49° 260° (W) 23:13:57 145.935 - 145.965
DX 1 15 Dec 23:12:16 23:14:01 12° 47° (NE) 23:15:46 434.975-435.025
SO-50 15 Dec 23:21:43 23:26:22 76° 224° (SW) 23:31:03 436.795
POLYITAN 1 15 Dec 23:22:37 23:24:54 14° 86° (E) 23:27:10 437.675
AIST 2D 15 Dec 23:26:52 23:30:10 34° 97° (E) 23:33:26 435.315
AO-85 15 Dec 23:30:07 23:34:10 87° 324° (NW) 23:38:32 145.980
FO-29 15 Dec 23:40:50 23:46:15 23° 317° (NW) 23:51:18 435.910
BEESAT 3 15 Dec 23:44:33 23:47:55 25° 346° (NNW) 23:51:16 437.485
QB50P2 15 Dec 23:47:36 23:51:07 25° 93° (E) 23:54:36 145.880/145.840
DUCHIFAT 1 15 Dec 23:50:44 23:53:50 20° 90° (E) 23:56:54 145.980
50 SAT 15 Dec 23:52:47 23:54:37 15° 58° (ENE) 23:56:28 437.505
VELOX 1 15 Dec 23:53:38 23:58:03 66° 70° (ENE) 00:02:30 145.980
ESTCUBE 1 16 Dec 00:03:49 00:07:37 26° 268° (W) 00:11:27 437.505/2401.250
TIGRISAT 16 Dec 00:10:41 00:14:00 22° 303° (WNW) 00:17:21 435.000
PCSat 16 Dec 00:12:39 00:17:13 26° 10° (N) 00:21:47 145.827
UNISAT 6 16 Dec 00:14:30 00:17:37 20° 304° (NW) 00:20:46 437.425
NANOSAT C BR1 16 Dec 00:17:30 00:21:25 36° 97° (E) 00:25:19 145.865
SPROUT 16 Dec 00:24:07 00:28:13 48° 260° (W) 00:32:22 437.525
BUGSAT 1 16 Dec 00:26:49 00:28:30 12° 86° (E) 00:30:11 437.445
UKube-1 16 Dec 00:27:04 00:30:45 28° 59° (ENE) 00:34:28 .
PRISM 16 Dec 00:27:16 00:30:59 33° 297° (WNW) 00:34:41 437.425
BEESAT 2 16 Dec 00:27:38 00:31:08 27° 344° (NNW) 00:34:38 435.950
MOZHAYETS 4 16 Dec 00:29:18 00:30:50 12° 45° (NE) 00:32:23
EO-79 16 Dec 00:33:41 00:37:51 56° 101° (ESE) 00:41:59 145.935-145.965
RS-15 16 Dec 00:41:49 00:52:38 44° 248° (WSW) 01:02:57 29.354- 29.394
DX 1 16 Dec 00:45:03 00:49:20 54° 67° (ENE) 00:53:37 434.975-435.025
Oscar 19 16 Dec 00:47:05 00:50:05 15° 84° (E) 00:53:06 437.125/150
POLYITAN 1 16 Dec 00:57:04 01:01:19 89° 117° (ESE) 01:05:34 437.675
AIST 2D 16 Dec 01:00:12 01:03:16 27° 296° (WNW) 01:06:18 435.315
BEESAT 16 Dec 01:00:59 01:03:54 16° 49° (NE) 01:06:50 436.000
SO-50 16 Dec 01:03:07 01:06:10 17° 245° (WSW) 01:09:15 436.795
AO-85 16 Dec 01:11:20 01:15:06 31° 342° (NNW) 01:19:08 145.980
AO-91 16 Dec 01:14:13 01:16:25 15° 89° (E) 01:18:32 145.960
50 SAT 16 Dec 01:23:02 01:26:11 62° 257° (WSW) 01:29:21 437.505
QB50P2 16 Dec 01:23:03 01:27:09 51° 292° (WNW) 01:31:16 145.880/145.840
BEESAT 3 16 Dec 01:23:14 01:26:31 23° 10° (N) 01:29:46 437.485
DUCHIFAT 1 16 Dec 01:25:44 01:29:54 64° 290° (WNW) 01:34:04 145.980
FO-29 16 Dec 01:27:28 01:28:48 11° 342° (NNW) 01:30:06 435.910
ITUPSAT 1 16 Dec 01:29:09 01:32:56 24° 55° (NE) 01:36:43 437.325
VELOX 1 16 Dec 01:31:31 01:34:55 21° 270° (W) 01:38:21 145.980
Gurwin Techsat 1B 16 Dec 01:39:20 01:43:57 29° 92° (E) 01:48:31 435.225
NANOSAT C BR1 16 Dec 01:53:18 01:57:07 34° 297° (WNW) 02:00:56 145.865
CUBESAT XI-V 16 Dec 01:54:33 01:57:36 17° 51° (NE) 02:00:41 437.345
PCSat 16 Dec 01:56:32 02:01:49 48° 35° (NE) 02:07:04 145.827
BUGSAT 1 16 Dec 02:00:28 02:04:32 83° 106° (ESE) 02:08:36 437.445
UKube-1 16 Dec 02:02:23 02:06:35 50° 259° (W) 02:10:50 .
MOZHAYETS 4 16 Dec 02:02:37 02:07:00 49° 66° (ENE) 02:11:26
BEESAT 2 16 Dec 02:06:36 02:09:55 23° 8° (N) 02:13:15 435.950
EO-79 16 Dec 02:09:55 02:13:20 24° 301° (WNW) 02:16:45 145.935-145.965
YUBILEINY 16 Dec 02:19:19 02:27:03 36° 81° (E) 02:34:48 435.215
DX 1 16 Dec 02:22:12 02:25:48 25° 267° (W) 02:29:26 434.975-435.025
Oscar 19 16 Dec 02:25:05 02:30:19 75° 105° (ESE) 02:35:32 437.125/150
POLYITAN 1 16 Dec 02:33:48 02:36:33 17° 306° (NW) 02:39:20 437.675
AO-7 16 Dec 02:33:59 02:39:54 20° 84° (E) 02:45:47 .
BEESAT 16 Dec 02:36:12 02:40:56 71° 70° (ENE) 02:45:42 436.000
AO-91 16 Dec 02:49:50 02:53:22 55° 290° (WNW) 02:56:42 145.960
AO-85 16 Dec 02:52:54 02:56:37 26° 7° (N) 03:00:35 145.980
RS-15 16 Dec 02:58:34 03:01:21 11° 274° (W) 03:04:05 29.354- 29.394
BEESAT 3 16 Dec 03:00:56 03:04:50 49° 33° (NNE) 03:08:40 437.485
QB50P2 16 Dec 03:00:58 03:02:03 11° 313° (NW) 03:03:08 145.880/145.840
DUCHIFAT 1 16 Dec 03:02:54 03:04:49 13° 310° (NW) 03:06:44 145.980
ITUPSAT 1 16 Dec 03:05:37 03:10:22 72° 255° (WSW) 03:15:09 437.325
Gurwin Techsat 1B 16 Dec 03:19:01 03:24:17 61° 293° (WNW) 03:29:31 435.225
CUBESAT XI-V 16 Dec 03:29:37 03:34:18 79° 71° (ENE) 03:39:02 437.345
BUGSAT 1 16 Dec 03:36:45 03:39:24 17° 305° (NW) 03:42:03 437.445
PCSat 16 Dec 03:40:04 03:45:21 53° 237° (WSW) 03:50:36 145.827
MOZHAYETS 4 16 Dec 03:40:24 03:44:23 29° 267° (W) 03:48:23
ITAMSAT 1 16 Dec 03:40:44 03:45:15 29° 93° (E) 03:49:43 435.822/435.867
KKS-1 16 Dec 03:41:35 03:45:31 31° 60° (ENE) 03:49:27 437.445
BEESAT 2 16 Dec 03:44:33 03:48:29 45° 31° (NNE) 03:52:22 435.950
Oscar 19 16 Dec 04:05:00 04:09:13 26° 306° (NW) 04:13:26 437.125/150
DOVE 4 16 Dec 04:11:20 04:13:33 13° 82° (E) 04:15:43 437.250
YUBILEINY 16 Dec 04:14:25 04:23:16 74° 286° (WNW) 04:32:10 435.215
BEESAT 16 Dec 04:15:34 04:19:13 21° 270° (W) 04:22:52 436.000
STARS 16 Dec 04:20:04 04:23:56 31° 61° (ENE) 04:27:48 437.465
AO-7 16 Dec 04:25:53 04:34:18 70° 108° (ESE) 04:42:39 .
M-CUBED/EXP-1 PRIME 16 Dec 04:26:20 04:30:52 54° 107° (ESE) 04:35:09 437.505
STRAND 1 16 Dec 04:33:33 04:35:45 13° 42° (NE) 04:37:58 437.568
AO-85 16 Dec 04:33:35 04:37:56 46° 30° (NNE) 04:42:39 145.980
BEESAT 3 16 Dec 04:38:38 04:42:19 37° 234° (SW) 04:45:55 437.485
ITUPSAT 1 16 Dec 04:46:52 04:49:05 13° 276° (W) 04:51:17 437.325
FO-29 16 Dec 04:48:23 04:52:49 17° 33° (NNE) 04:57:08 435.910
Gurwin Techsat 1B 16 Dec 05:00:05 05:03:19 17° 314° (NW) 05:06:33 435.225
CUBESAT XI-V 16 Dec 05:08:57 05:12:16 19° 273° (W) 05:15:36 437.345
KKS-1 16 Dec 05:17:39 05:21:57 46° 260° (W) 05:26:16 437.445
CUTE-I 16 Dec 05:19:26 05:21:33 12° 81° (E) 05:23:40 437.470
ITAMSAT 1 16 Dec 05:19:57 05:25:04 59° 294° (WNW) 05:30:09 435.822/435.867
BEESAT 2 16 Dec 05:22:23 05:26:15 44° 232° (SW) 05:30:04 435.950
PCSat 16 Dec 05:25:49 05:27:35 12° 258° (WSW) 05:29:21 145.827
LilacSat-2 16 Dec 05:39:19 05:41:58 17° 89° (E) 05:44:37 437.200
DOVE 4 16 Dec 05:47:29 05:52:08 80° 102° (ESE) 05:56:30 437.250
NUDT-PHONESAT 16 Dec 05:48:54 05:50:58 14° 87° (E) 05:53:01 437.300
XW-2D 16 Dec 05:51:08 05:54:08 21° 91° (E) 05:57:06 145.860 - 145.880
KAITUO 1B 16 Dec 05:55:17 05:57:51 17° 89° (E) 06:00:24 145.475/437.950
STARS 16 Dec 05:55:56 06:00:10 45° 261° (W) 06:04:23 437.465
M-CUBED/EXP-1 PRIME 16 Dec 06:00:58 06:05:01 31° 308° (NW) 06:08:54 437.505
XW-2B 16 Dec 06:06:51 06:10:13 28° 94° (E) 06:13:34 145.730 - 145.750
STRAND 1 16 Dec 06:08:58 06:13:51 47° 64° (ENE) 06:18:45 437.568
CUTE 1.7 + AOD 2 16 Dec 06:10:08 06:11:40 12° 83° (E) 06:13:10 437.475
AO-85 16 Dec 06:13:59 06:18:31 54° 230° (SW) 06:23:23 145.980
YUBILEINY 16 Dec 06:14:44 06:21:51 26° 313° (NW) 06:29:01 435.215
XW-2F 16 Dec 06:17:20 06:20:51 33° 96° (E) 06:24:20 145.980 - 146.000
AO-7 16 Dec 06:19:00 06:26:46 44° 311° (NW) 06:34:31 .
FO-29 16 Dec 06:28:53 06:36:04 41° 56° (NE) 06:43:03 435.910
XW-2C 16 Dec 06:34:08 06:37:55 50° 100° (E) 06:41:41 145.795 - 145.815
CUTE-I 16 Dec 06:57:27 07:02:46 61° 103° (ESE) 07:08:01 437.470
ITAMSAT 1 16 Dec 07:00:35 07:03:36 16° 315° (NW) 07:06:36 435.822/435.867
HO-68 16 Dec 07:06:33 07:13:15 40° 96° (E) 07:19:54 435.675
UWE-3 16 Dec 07:10:37 07:13:23 17° 87° (E) 07:16:11 435.000/436.395/437.385
LilacSat-2 16 Dec 07:12:47 07:16:39 65° 288° (WNW) 07:20:30 437.200
CUBEBUG 2 16 Dec 07:14:04 07:17:41 26° 93° (E) 07:21:21 437.445
NO-84 16 Dec 07:16:28 07:18:56 21° 143° (SE) 07:21:32 435.350 FM
SEEDS 16 Dec 07:17:49 07:21:33 29° 93° (E) 07:25:16 437.485
NUDT-PHONESAT 16 Dec 07:21:31 07:25:18 77° 286° (WNW) 07:29:03 437.300
XW-2D 16 Dec 07:24:48 07:28:35 51° 291° (WNW) 07:32:19 145.860 - 145.880
DOVE 4 16 Dec 07:25:56 07:29:17 20° 306° (NW) 07:32:30 437.250
KAITUO 1B 16 Dec 07:28:26 07:32:13 63° 289° (WNW) 07:35:58 145.475/437.950
XW-2A 16 Dec 07:29:55 07:32:04 16° 90° (E) 07:34:12 145.665 - 145.685
AAUSAT CUBESAT 2 16 Dec 07:31:44 07:34:49 20° 89° (E) 07:37:53 437.432
ZACube-1 16 Dec 07:31:50 07:34:26 15° 87° (E) 07:37:04 437.345
XW-2B 16 Dec 07:40:53 07:44:29 38° 294° (WNW) 07:48:05 145.730 - 145.750
O/OREOS (USA 219) 16 Dec 07:41:28 07:44:10 16° 100° (E) 07:46:52 437.305
CUTE 1.7 + AOD 2 16 Dec 07:43:58 07:48:18 72° 103° (ESE) 07:52:35 437.475
STRAND 1 16 Dec 07:48:30 07:53:12 36° 264° (W) 07:57:54 437.568
Oscar 11 16 Dec 07:48:45 07:51:00 14° 85° (E) 07:53:13 .
XW-2F 16 Dec 07:51:29 07:54:57 32° 295° (WNW) 07:58:23 145.980 - 146.000
AO-85 16 Dec 07:56:13 07:58:07 12° 249° (WSW) 08:00:05 145.980
TIGRISAT 16 Dec 08:03:40 08:07:05 24° 59° (ENE) 08:10:30 435.000
AO-73 16 Dec 08:04:01 08:07:38 25° 92° (E) 08:11:19 145.935
UNISAT 6 16 Dec 08:07:13 08:10:48 27° 60° (ENE) 08:14:26 437.425
XW-2C 16 Dec 08:08:46 08:11:51 23° 300° (WNW) 08:14:55 145.795 - 145.815
AO-7 16 Dec 08:11:58 08:17:38 21° 336° (NNW) 08:23:18 .
FO-29 16 Dec 08:12:51 08:20:43 71° 257° (WSW) 08:28:27 435.910
PRISM 16 Dec 08:15:02 08:17:13 14° 51° (NE) 08:19:25 437.425
YUBILEINY 16 Dec 08:19:54 08:22:57 12° 345° (NNW) 08:26:01 435.215
CUTE-I 16 Dec 08:37:54 08:42:34 31° 303° (WNW) 08:47:12 437.470
UWE-3 16 Dec 08:46:05 08:50:23 81° 288° (WNW) 08:54:47 435.000/436.395/437.385
LilacSat-2 16 Dec 08:48:45 08:50:12 12° 309° (NW) 08:51:38 437.200
CUBEBUG 2 16 Dec 08:50:27 08:54:31 47° 292° (WNW) 08:58:41 437.445
NO-84 16 Dec 08:52:30 08:55:42 63° 165° (SSE) 08:59:11 435.350 FM
SEEDS 16 Dec 08:53:20 08:57:24 44° 293° (WNW) 09:01:25 437.485
HO-68 16 Dec 08:54:18 09:01:22 62° 298° (WNW) 09:08:23 435.675
NUDT-PHONESAT 16 Dec 08:56:48 08:58:30 13° 307° (NW) 09:00:13 437.300
XW-2A 16 Dec 09:01:42 09:05:06 58° 289° (WNW) 09:08:29 145.665 - 145.685
KAITUO 1B 16 Dec 09:04:16 09:05:27 11° 309° (NW) 09:06:39 145.475/437.950
AAUSAT CUBESAT 2 16 Dec 09:06:31 09:10:40 63° 290° (WNW) 09:14:47 437.432
ZACube-1 16 Dec 09:06:58 09:11:19 88° 294° (WNW) 09:15:45 437.345
QB50P2 16 Dec 09:15:34 09:16:02 10° 46° (NE) 09:16:31 145.880/145.840
O/OREOS (USA 219) 16 Dec 09:18:19 09:22:54 85° 121° (ESE) 09:27:30 437.305
CUTE 1.7 + AOD 2 16 Dec 09:20:30 09:23:43 21° 303° (WNW) 09:26:54 437.475
Oscar 11 16 Dec 09:23:27 09:27:51 83° 105° (ESE) 09:32:13 .
Max Valier Satellite 16 Dec 09:38:19 09:41:16 22° 92° (E) 09:44:13 145.860
TIGRISAT 16 Dec 09:39:18 09:43:31 57° 259° (W) 09:47:43 435.000
AO-73 16 Dec 09:39:55 09:44:08 52° 291° (WNW) 09:48:25 145.935
UNISAT 6 16 Dec 09:43:12 09:47:21 49° 260° (W) 09:51:32 437.425
NANOSAT C BR1 16 Dec 09:43:17 09:45:25 14° 51° (NE) 09:47:34 145.865
PRISM 16 Dec 09:47:40 09:51:49 72° 71° (ENE) 09:55:59 437.425
DELFI C3 16 Dec 09:50:58 09:54:42 39° 97° (E) 09:58:25 145.870
EO-79 16 Dec 09:58:49 10:01:48 19° 56° (NE) 10:04:47 145.935-145.965
FO-29 16 Dec 10:01:20 10:07:01 21° 279° (W) 10:12:39 435.910
EO-88 16 Dec 10:01:50 10:04:58 26° 94° (E) 10:08:05 145.990 - 145.960
AO-7 16 Dec 10:03:00 10:07:31 16° 4° (N) 10:12:02 .
AIST 2D 16 Dec 10:07:41 10:11:00 40° 68° (ENE) 10:14:22 435.315
YUBILEINY 16 Dec 10:21:28 10:25:14 13° 20° (NNE) 10:28:58 435.215
POLYITAN 1 16 Dec 10:21:35 10:25:09 28° 61° (ENE) 10:28:43 437.675
UWE-3 16 Dec 10:23:41 10:26:15 16° 307° (NW) 10:28:51 435.000/436.395/437.385
NO-84 16 Dec 10:29:30 10:32:52 78° 186° (S) 10:36:34 435.350 FM
CUBEBUG 2 16 Dec 10:29:51 10:30:14 10° 313° (NW) 10:30:36 437.445
Oscar 19 16 Dec 10:35:10 10:37:20 13° 41° (NE) 10:39:31 437.125/150
HO-68 16 Dec 10:42:42 10:47:54 22° 321° (NW) 10:53:06 435.675
AAUSAT CUBESAT 2 16 Dec 10:43:32 10:45:20 13° 310° (NW) 10:47:09 437.432
ZACube-1 16 Dec 10:44:15 10:47:03 17° 306° (NW) 10:49:54 437.345
QB50P2 16 Dec 10:46:52 10:50:53 47° 67° (ENE) 10:54:57 145.880/145.840
DUCHIFAT 1 16 Dec 10:49:05 10:52:55 37° 64° (ENE) 10:56:46 145.980
O/OREOS (USA 219) 16 Dec 10:59:08 11:02:54 24° 323° (NW) 11:06:39 437.305
Oscar 11 16 Dec 11:00:26 11:03:29 19° 305° (NW) 11:06:32 .
Max Valier Satellite 16 Dec 11:11:42 11:15:19 47° 291° (WNW) 11:18:54 145.860
NANOSAT C BR1 16 Dec 11:16:16 11:20:25 70° 71° (ENE) 11:24:36 145.865
AO-73 16 Dec 11:18:07 11:19:30 11° 312° (NW) 11:20:53 145.935
BUGSAT 1 16 Dec 11:22:43 11:25:58 24° 59° (ENE) 11:29:14 437.445
PRISM 16 Dec 11:24:43 11:27:34 18° 271° (W) 11:30:24 437.425
DELFI C3 16 Dec 11:25:54 11:29:22 29° 297° (WNW) 11:32:48 145.870
Gurwin Techsat 1B 16 Dec 11:29:50 11:33:49 22° 51° (NE) 11:37:49 435.225
EO-79 16 Dec 11:32:55 11:37:07 76° 257° (WSW) 11:41:20 145.935-145.965
EO-88 16 Dec 11:35:16 11:38:43 38° 293° (WNW) 11:42:08 145.990 - 145.960
AIST 2D 16 Dec 11:41:30 11:44:19 22° 267° (W) 11:47:12 435.315
ESTCUBE 1 16 Dec 11:47:29 11:51:50 41° 98° (E) 11:56:08 437.505/2401.250
AO-7 16 Dec 11:51:20 11:57:33 24° 31° (NNE) 12:03:48 .
POLYITAN 1 16 Dec 11:56:43 12:00:46 47° 261° (W) 12:04:50 437.675
LO-87 16 Dec 11:59:19 12:02:51 69° 103° (ESE) 12:06:23 145.935 - 145.965
SPROUT 16 Dec 12:02:28 12:05:26 18° 89° (E) 12:08:22 437.525
NO-84 16 Dec 12:06:37 12:09:58 40° 206° (SSW) 12:13:34 435.350 FM
Oscar 19 16 Dec 12:10:37 12:15:31 45° 63° (ENE) 12:20:27 437.125/150
nSIGHT-1 16 Dec 12:10:50 12:13:11 19° 153° (SSE) 12:15:32 .
M-CUBED/EXP-1 PRIME 16 Dec 12:13:25 12:15:06 12° 35° (NE) 12:16:48 437.505
AO-91 16 Dec 12:17:06 12:21:24 42° 67° (ENE) 12:25:19 145.960
YUBILEINY 16 Dec 12:18:22 12:25:59 30° 52° (NE) 12:33:30 435.215
QB50P2 16 Dec 12:23:21 12:26:54 26° 267° (W) 12:30:28 145.880/145.840
DUCHIFAT 1 16 Dec 12:24:51 12:28:38 33° 264° (W) 12:32:26 145.980
HO-68 16 Dec 12:31:23 12:33:10 11° 347° (NNW) 12:34:58 435.675
O/OREOS (USA 219) 16 Dec 12:42:23 12:43:58 12° 348° (NNW) 12:45:32 437.305
NANOSAT C BR1 16 Dec 12:53:43 12:56:36 18° 271° (W) 12:59:30 145.865
BUGSAT 1 16 Dec 12:57:10 13:01:06 52° 259° (W) 13:05:03 437.445
ISS 16 Dec 12:59:19 13:02:08 27° 160° (SSE) 13:04:59 437.550
RS-15 16 Dec 13:05:32 13:13:37 21° 96° (E) 13:21:36 29.354- 29.394
Gurwin Techsat 1B 16 Dec 13:07:49 13:13:10 87° 70° (ENE) 13:18:32 435.225
EO-79 16 Dec 13:12:02 13:13:38 12° 276° (W) 13:15:13 145.935-145.965
VELOX 1 16 Dec 13:12:18 13:16:34 45° 99° (E) 13:20:47 145.980
